When you browse on this site, cookies collect data to enhance your experience and personalize the content and advertising you see.
Visit our Privacy Policy to learn more. By continuing to use the site, you agree to this use of cookies and data.
  • En España
  • Lista de países
  • Para 7 días
  • Temperatura del agua
  • El tiempo en el mapa
  • Informadores
  • user-avatar
    Iniciar sesión

    Tiempo cada hora Polotsk

    Hoy, 7 Abril, Martes

    Tiempo Temperatura Precipitaciones Viento Presión Humedad
    00:00 +6°C° 0 mm 1 mps 761 mmHg 71%
    01:00 +6°C° 0 mm 1 mps 761 mmHg 72%
    02:00 +4°C° 0 mm 2 mps 761 mmHg 71%
    03:00 +4°C° 0 mm 2 mps 761 mmHg 72%
    04:00 +4°C° 0 mm 2 mps 761 mmHg 73%
    05:00 +4°C° 0 mm 2 mps 760 mmHg 73%
    06:00 +4°C° 0 mm 3 mps 760 mmHg 68%
    07:00 +5°C° 0 mm 3 mps 760 mmHg 63%
    08:00 +7°C° 0 mm 4 mps 760 mmHg 56%
    09:00 +10°C° 0 mm 4 mps 760 mmHg 50%
    10:00 +12°C° 0 mm 5 mps 759 mmHg 44%
    11:00 +13°C° 0 mm 5 mps 759 mmHg 38%
    12:00 +14°C° 0 mm 5 mps 758 mmHg 36%
    13:00 +15°C° 0 mm 6 mps 758 mmHg 35%
    14:00 +16°C° 0 mm 6 mps 758 mmHg 34%
    15:00 +15°C° 0 mm 6 mps 757 mmHg 36%
    16:00 +15°C° 0 mm 5 mps 756 mmHg 38%
    17:00 +15°C° 0 mm 5 mps 755 mmHg 41%
    18:00 +13°C° 0 mm 5 mps 755 mmHg 46%
    19:00 +12°C° 0 mm 5 mps 754 mmHg 51%
    20:00 +10°C° 0 mm 5 mps 754 mmHg 56%
    21:00 +10°C° 0 mm 5 mps 754 mmHg 58%
    22:00 +9°C° 0 mm 5 mps 753 mmHg 61%
    23:00 +9°C° 0 mm 6 mps 753 mmHg 63%

    Mañana, 8 Abril, Miércoles

    Tiempo Temperatura Precipitaciones Viento Presión Humedad
    00:00 +8°C° 0 mm 5 mps 753 mmHg 69%
    01:00 +7°C° 0 mm 5 mps 753 mmHg 74%
    02:00 +6°C° 0 mm 5 mps 753 mmHg 80%
    03:00 +6°C° 0 mm 5 mps 754 mmHg 79%
    04:00 +5°C° 0 mm 6 mps 754 mmHg 79%
    05:00 +4°C° 0 mm 6 mps 754 mmHg 78%
    06:00 +5°C° 0 mm 6 mps 754 mmHg 76%
    07:00 +5°C° 0 mm 6 mps 755 mmHg 74%
    08:00 +7°C° 0 mm 6 mps 755 mmHg 72%
    09:00 +7°C° 0 mm 5 mps 755 mmHg 69%
    10:00 +8°C° 0 mm 5 mps 755 mmHg 65%
    11:00 +10°C° 0 mm 4 mps 755 mmHg 62%
    12:00 +11°C° 0 mm 4 mps 755 mmHg 56%
    13:00 +12°C° 0 mm 4 mps 755 mmHg 50%
    14:00 +13°C° 0 mm 4 mps 755 mmHg 44%
    15:00 +12°C° 0 mm 4 mps 755 mmHg 44%
    16:00 +12°C° 0 mm 3 mps 755 mmHg 44%
    17:00 +12°C° 0 mm 3 mps 754 mmHg 44%
    18:00 +12°C° 0 mm 2 mps 754 mmHg 50%
    19:00 +9°C° 0 mm 2 mps 754 mmHg 55%
    20:00 +9°C° 0 mm 1 mps 754 mmHg 60%
    21:00 +7°C° 0 mm 2 mps 754 mmHg 63%
    22:00 +6°C° 0 mm 2 mps 753 mmHg 65%
    23:00 +6°C° 0 mm 2 mps 753 mmHg 68%

    Pasado mañana, 9 Abril, Jueves

    Tiempo Temperatura Precipitaciones Viento Presión Humedad
    00:00 +5°C° 0 mm 2 mps 753 mmHg 69%
    01:00 +5°C° 0 mm 2 mps 752 mmHg 70%
    02:00 +4°C° 0 mm 2 mps 751 mmHg 71%
    03:00 +4°C° 0 mm 2 mps 751 mmHg 70%
    04:00 +3°C° 0 mm 3 mps 750 mmHg 70%
    05:00 +3°C° 0 mm 3 mps 750 mmHg 70%
    06:00 +4°C° 0 mm 4 mps 749 mmHg 68%
    07:00 +6°C° 0 mm 4 mps 749 mmHg 66%
    08:00 +7°C° 0 mm 5 mps 748 mmHg 63%
    09:00 +8°C° 0 mm 5 mps 748 mmHg 59%
    10:00 +10°C° 0 mm 5 mps 747 mmHg 56%
    11:00 +11°C° 0 mm 6 mps 747 mmHg 52%
    12:00 +10°C° 0.1 mm 5 mps 747 mmHg 59%
    13:00 +9°C° 0.1 mm 5 mps 746 mmHg 65%
    14:00 +8°C° 0.1 mm 4 mps 746 mmHg 72%
    15:00 +8°C° 0.1 mm 4 mps 745 mmHg 73%
    16:00 +10°C° 0.1 mm 4 mps 745 mmHg 74%
    17:00 +10°C° 0.1 mm 4 mps 745 mmHg 75%
    18:00 +8°C° 0.1 mm 4 mps 745 mmHg 80%
    19:00 +7°C° 0.1 mm 4 mps 745 mmHg 84%
    20:00 +8°C° 0.1 mm 3 mps 745 mmHg 89%
    21:00 +6°C° 0.1 mm 4 mps 745 mmHg 85%
    22:00 +5°C° 0.1 mm 4 mps 745 mmHg 82%
    23:00 +5°C° 0.1 mm 5 mps 746 mmHg 79%

    10 Abril, Viernes

    Tiempo Temperatura Precipitaciones Viento Presión Humedad
    00:00 +2°C° 0 mm 5 mps 746 mmHg 76%
    01:00 +1°C° 0 mm 4 mps 746 mmHg 74%
    02:00 0°C° 0 mm 4 mps 746 mmHg 72%
    03:00 -1°C° 0 mm 4 mps 747 mmHg 74%
    04:00 -1°C° 0 mm 4 mps 747 mmHg 76%
    05:00 -2°C° 0 mm 4 mps 747 mmHg 79%
    06:00 -1°C° 0 mm 4 mps 748 mmHg 75%
    07:00 0°C° 0 mm 5 mps 748 mmHg 70%
    08:00 +1°C° 0 mm 5 mps 749 mmHg 66%
    09:00 +2°C° 0 mm 6 mps 749 mmHg 60%
    10:00 +3°C° 0 mm 6 mps 749 mmHg 54%
    11:00 +4°C° 0 mm 6 mps 749 mmHg 48%
    12:00 +5°C° 0 mm 6 mps 749 mmHg 47%
    13:00 +5°C° 0 mm 6 mps 749 mmHg 46%
    14:00 +7°C° 0 mm 6 mps 749 mmHg 45%
    15:00 +7°C° 0 mm 6 mps 749 mmHg 47%
    16:00 +6°C° 0 mm 5 mps 749 mmHg 48%
    17:00 +6°C° 0 mm 5 mps 749 mmHg 49%
    18:00 +5°C° 0 mm 5 mps 750 mmHg 56%
    19:00 +4°C° 0 mm 4 mps 750 mmHg 62%
    20:00 +3°C° 0 mm 4 mps 750 mmHg 68%
    21:00 +1°C° 0 mm 4 mps 750 mmHg 70%
    22:00 +1°C° 0 mm 4 mps 750 mmHg 72%
    23:00 0°C° 0 mm 4 mps 751 mmHg 73%

    11 Abril, Sábado

    Tiempo Temperatura Precipitaciones Viento Presión Humedad
    00:00 -1°C° 0 mm 4 mps 751 mmHg 71%
    01:00 -1°C° 0 mm 4 mps 751 mmHg 69%
    02:00 -2°C° 0 mm 4 mps 751 mmHg 67%
    03:00 -2°C° 0 mm 4 mps 751 mmHg 69%
    04:00 -3°C° 0 mm 4 mps 751 mmHg 70%
    05:00 -4°C° 0 mm 4 mps 752 mmHg 72%
    06:00 -3°C° 0 mm 4 mps 752 mmHg 68%
    07:00 -2°C° 0 mm 4 mps 752 mmHg 64%
    08:00 -1°C° 0 mm 4 mps 753 mmHg 60%
    09:00 0°C° 0 mm 4 mps 753 mmHg 55%
    10:00 +3°C° 0 mm 4 mps 753 mmHg 51%
    11:00 +4°C° 0 mm 4 mps 753 mmHg 46%
    12:00 +5°C° 0 mm 4 mps 753 mmHg 43%
    13:00 +5°C° 0 mm 4 mps 753 mmHg 40%
    14:00 +7°C° 0 mm 3 mps 754 mmHg 37%
    15:00 +7°C° 0 mm 3 mps 753 mmHg 38%
    16:00 +5°C° 0 mm 3 mps 753 mmHg 38%
    17:00 +5°C° 0 mm 3 mps 753 mmHg 38%
    18:00 +5°C° 0 mm 2 mps 753 mmHg 44%
    19:00 +4°C° 0 mm 2 mps 753 mmHg 49%
    20:00 +3°C° 0 mm 1 mps 754 mmHg 55%
    21:00 +3°C° 0 mm 1 mps 754 mmHg 56%
    22:00 +2°C° 0 mm 1 mps 754 mmHg 57%
    23:00 +1°C° 0 mm 0 mps 754 mmHg 58%

    12 Abril, Domingo

    Tiempo Temperatura Precipitaciones Viento Presión Humedad
    00:00 +1°C° 0 mm 1 mps 754 mmHg 59%
    01:00 +1°C° 0 mm 1 mps 753 mmHg 61%
    02:00 -1°C° 0 mm 2 mps 753 mmHg 62%
    03:00 -1°C° 0 mm 2 mps 753 mmHg 63%
    04:00 -1°C° 0 mm 2 mps 752 mmHg 63%
    05:00 -1°C° 0 mm 2 mps 752 mmHg 64%
    06:00 0°C° 0 mm 3 mps 752 mmHg 59%
    07:00 +1°C° 0 mm 4 mps 751 mmHg 54%
    08:00 +2°C° 0 mm 5 mps 751 mmHg 49%
    09:00 +3°C° 0 mm 5 mps 750 mmHg 47%
    10:00 +5°C° 0 mm 5 mps 750 mmHg 45%
    11:00 +7°C° 0 mm 5 mps 749 mmHg 43%
    12:00 +7°C° 0 mm 6 mps 749 mmHg 42%
    13:00 +8°C° 0 mm 6 mps 748 mmHg 41%
    14:00 +9°C° 0 mm 6 mps 747 mmHg 41%
    15:00 +9°C° 0 mm 6 mps 747 mmHg 43%
    16:00 +9°C° 0 mm 6 mps 746 mmHg 45%
    17:00 +9°C° 0 mm 6 mps 745 mmHg 47%
    18:00 +8°C° 0 mm 6 mps 745 mmHg 50%
    19:00 +7°C° 0 mm 6 mps 744 mmHg 54%
    20:00 +5°C° 0 mm 6 mps 743 mmHg 58%
    21:00 +5°C° 0 mm 6 mps 743 mmHg 59%
    22:00 +7°C° 0 mm 6 mps 742 mmHg 60%
    23:00 +7°C° 0 mm 6 mps 742 mmHg 62%
    Mostrar más